OK2DDS-5 Weather Reports


Display with metric or nautical units.
time (UTC)temp
F
wind
direction
speed
MPH
gust
MPH
rain 1hr
in
rain 24hr
in
rain mn
in
humidity
%
barometer
mb
20260505013128 60 0 0.0 20.0 0.00 0.00 0.00 1003.0
20260505011628 60 0 0.0 15.0 0.00 0.00 0.00 1003.0
20260505010128 61 0 0.0 9.0 0.00 0.00 0.00 1003.0
20260505004628 61 0 0.0 14.0 0.00 0.00 0.00 1003.0
20260505003128 61 0 0.0 19.0 0.00 0.00 0.00 1003.0
20260505001628 61 0 0.0 28.0 0.00 0.00 0.00 1003.0
20260505000128 61 0 0.0 18.0 0.00 0.00 0.00 1003.0
20260504234628 62 0 0.0 9.0 0.00 0.00 0.00 1004.0
20260504233128 62 0 0.0 23.0 0.00 0.00 0.00 1004.0
20260504231628 62 0 0.0 12.0 0.00 0.00 0.00 1004.0
20260504230128 63 0 0.0 22.0 0.00 0.00 0.00 1004.0
20260504224628 63 0 0.0 24.0 0.00 0.00 0.00 1004.0
20260504223128 64 0 0.0 41.0 0.00 0.00 0.00 1004.0
20260504221628 64 0 0.0 13.0 0.00 0.00 0.00 1004.0
20260504220128 65 0 0.0 12.0 0.00 0.00 0.00 1004.0
20260504214628 65 0 0.0 15.0 0.00 0.00 0.00 1004.0
20260504213128 65 0 0.0 23.0 0.00 0.00 0.00 1004.0
20260504211628 65 0 0.0 15.0 0.00 0.00 0.00 1004.0
20260504210128 66 0 0.0 10.0 0.00 0.00 0.00 1004.0
20260504204628 66 0 0.0 12.0 0.00 0.00 0.00 1005.0
20260504203128 67 0 0.0 6.0 0.00 0.00 0.00 1005.0
20260504201628 67 0 0.0 37.0 0.00 0.00 0.00 1005.0
20260504200128 68 0 0.0 19.0 0.00 0.00 0.00 1005.0
20260504194628 69 0 0.0 9.0 0.00 0.00 0.00 1005.0
20260504193128 69 0 0.0 31.0 0.00 0.00 0.00 1004.0
20260504191628 70 0 0.0 21.0 0.00 0.00 0.00 1004.0
20260504190128 71 0 0.0 7.0 0.00 0.00 0.00 1004.0
20260504184628 72 0 0.0 20.0 0.00 0.00 0.00 1004.0
20260504183128 73 0 0.0 18.0 0.00 0.00 0.00 1004.0
20260504181628 74 0 0.0 8.0 0.00 0.00 0.00 1004.0
20260504180128 75 0 0.0 6.0 0.00 0.00 0.00 1004.0
20260504174628 77 0 0.0 9.0 0.00 0.00 0.00 1004.0
20260504173128 79 0 0.0 7.0 0.00 0.00 0.00 1004.0
20260504171628 79 0 0.0 7.0 0.00 0.00 0.00 1004.0
20260504170128 80 0 0.0 6.0 0.00 0.00 0.00 1004.0
20260504160128 88 0 0.0 12.0 0.00 0.00 0.00 1004.0
20260504150128 92 0 0.0 7.0 0.00 0.00 0.00 1004.0
20260504140128 89 0 1.0 9.0 0.00 0.00 0.00 1005.0
20260504130128 92 0 1.0 7.0 0.00 0.00 0.00 1005.0
20260504120128 88 0 1.0 10.0 0.00 0.00 0.00 1006.0
20260504110128 83 0 1.0 12.0 0.00 0.00 0.00 1006.0
20260504100128 82 0 1.0 11.0 0.00 0.00 0.00 1007.0
20260504090128 75 0 0.0 12.0 0.00 0.00 0.00 1007.0
20260504081629 72 0 1.0 19.0 0.00 0.00 0.00 1007.0
20260504080128 70 0 1.0 23.0 0.00 0.00 0.00 1007.0
20260504070128 66 0 1.0 14.0 0.00 0.00 0.00 1007.0
20260504060128 62 0 0.0 13.0 0.00 0.00 0.00 1007.0
20260504050128 58 0 0.0 28.0 0.00 0.00 0.00 1007.0
20260504044628 58 0 0.0 34.0 0.00 0.00 0.00 1007.0
20260504043128 57 0 0.0 15.0 0.00 0.00 0.00 1007.0
20260504041628 56 0 0.0 17.0 0.00 0.00 0.00 1007.0
20260504040128 55 0 0.0 39.0 0.00 0.00 0.00 1007.0
20260504034627 55 0 0.0 18.0 0.00 0.00 0.00 1008.0
20260504033128 55 0 0.0 26.0 0.00 0.00 0.00 1008.0
20260504031628 55 0 0.0 29.0 0.00 0.00 0.00 1007.0
20260504030128 56 0 0.0 26.0 0.00 0.00 0.00 1008.0
20260504024627 56 0 0.0 17.0 0.00 0.00 0.00 1008.0
20260504023127 56 0 0.0 22.0 0.00 0.00 0.00 1007.0
20260504021627 55 0 0.0 10.0 0.00 0.00 0.00 1008.0
20260504020127 55 0 0.0 8.0 0.00 0.00 0.00 1008.0
20260504014628 56 0 0.0 23.0 0.00 0.00 0.00 1008.0